Wauseon, OH

9:55 PM EDT on August 31, 2016 (GMT -0400)
Fulton County

Weather History for KUSE - December, 2013

Change the Weather History Date:

Tuesday, December 10, 2013

  Actual Average (KTOL) Record (KTOL)
Temperature  
Mean Temperature 16 °F 31 °F  
Max Temperature 24 °F 38 °F 67 °F (1971)
Min Temperature 8 °F 25 °F -6 °F (1958)
Degree Days  
Heating Degree Days 49 34  
Month to date heating degree days 321  
Since 1 July heating degree days 1554  
Cooling Degree Days 0 0  
Month to date cooling degree days 0  
Year to date cooling degree days 793  
Moisture  
Dew Point 7 °F    
Average Humidity 64    
Maximum Humidity 79    
Minimum Humidity 45    
Precipitation  
Precipitation 0.00 in 0.09 in 0.89 in (1967)
Month to date precipitation 0.91  
Year to date precipitation 32.47  
Snow  
Snow 0.00 in 0.20 in - ()
Month to date snowfall 1.8  
Since 1 July snowfall 3.9  
Snow Depth -    
Sea Level Pressure  
Sea Level Pressure 30.10 in    
Wind  
Wind Speed 15 mph (WSW)    
Max Wind Speed 29 mph    
Max Gust Speed 38 mph    
Visibility 10 miles    
Events      
T = Trace of Precipitation, MM = Missing Value Source: NWS Daily Summary

Daily Weather History Graph

Daily Weather History Graph

Search for Another Location

Airport or City:

Trip Planner

Search our weather history database for the weather conditions in past years. The results will help you decide how hot, cold, wet, or windy it might be!

Date:

Astronomy

Dec. 10, 2013 Rise Set
Actual Time 7:52 AM EST 5:06 PM EST
Civil Twilight 7:21 AM EST 5:37 PM EST
Nautical Twilight 6:46 AM EST 6:12 PM EST
Astronomical Twilight 6:12 AM EST 6:46 PM EST
Moon 1:11 PM EST (12/10) 1:05 AM EST (12/10)
Length of Visible Light 10h 16m
Length of Day
9h 13m
First Quarter, 61% of the Moon is Illuminated
Dec 10
First Quarter
Dec 17
Full
Dec 25
Last Quarter
Jan 1
New
Jan 7
First Quarter

Hourly Weather History & Observations

Time (EST) Temp. Windchill Dew Point Humidity Pressure Visibility Wind Dir Wind Speed Gust Speed Precip Events Conditions
12:15 AM 17.6 °F 3.2 °F 10.4 °F 73% 30.12 in 10.0 mi West 15.0 mph 24.2 mph N/A   Overcast
12:35 AM 17.6 °F 3.2 °F 10.4 °F 73% 30.12 in 10.0 mi West 15.0 mph - N/A   Overcast
12:55 AM 17.6 °F 3.2 °F 10.4 °F 73% 30.13 in 10.0 mi West 15.0 mph - N/A   Overcast
1:15 AM 17.6 °F 3.2 °F 8.6 °F 68% 30.13 in 10.0 mi West 15.0 mph - N/A   Overcast
1:35 AM 17.6 °F 2.7 °F 8.6 °F 68% 30.13 in 10.0 mi West 16.1 mph - N/A   Scattered Clouds
1:55 AM 17.6 °F 3.7 °F 8.6 °F 68% 30.14 in 10.0 mi West 13.8 mph 19.6 mph N/A   Clear
2:15 AM 17.6 °F 4.3 °F 8.6 °F 68% 30.14 in 10.0 mi WSW 12.7 mph 19.6 mph N/A   Clear
2:35 AM 17.6 °F 5.0 °F 8.6 °F 68% 30.14 in 10.0 mi West 11.5 mph 17.3 mph N/A   Partly Cloudy
2:55 AM 15.8 °F 1.4 °F 8.6 °F 73% 30.15 in 10.0 mi West 13.8 mph - N/A   Partly Cloudy
3:15 AM 15.8 °F 3.4 °F 8.6 °F 73% 30.14 in 10.0 mi West 10.4 mph - N/A   Clear
3:35 AM 15.8 °F 2.7 °F 8.6 °F 73% 30.12 in 10.0 mi West 11.5 mph - N/A   Clear
3:55 AM 15.8 °F 3.4 °F 8.6 °F 73% 30.12 in 10.0 mi WSW 10.4 mph - N/A   Partly Cloudy
4:15 AM 14.0 °F 1.2 °F 6.8 °F 73% 30.11 in 10.0 mi West 10.4 mph - N/A   Partly Cloudy
4:35 AM 14.0 °F 2.0 °F 6.8 °F 73% 30.10 in 10.0 mi West 9.2 mph - N/A   Clear
4:55 AM 14.0 °F 0.5 °F 6.8 °F 73% 30.11 in 10.0 mi West 11.5 mph - N/A   Clear
5:15 AM 14.0 °F 2.0 °F 6.8 °F 73% 30.11 in 10.0 mi West 9.2 mph - N/A   Clear
5:35 AM 12.2 °F -2.5 °F 5.0 °F 73% 30.11 in 10.0 mi West 12.7 mph - N/A   Clear
5:55 AM 12.2 °F -2.5 °F 5.0 °F 73% 30.11 in 10.0 mi West 12.7 mph - N/A   Clear
6:15 AM 12.2 °F -3.7 °F 5.0 °F 73% 30.12 in 10.0 mi West 15.0 mph - N/A   Clear
6:35 AM 12.2 °F -1.8 °F 5.0 °F 73% 30.12 in 10.0 mi West 11.5 mph - N/A   Clear
6:55 AM 10.4 °F -1.5 °F 3.2 °F 73% 30.11 in 10.0 mi West 8.1 mph - N/A   Clear
7:15 AM 10.4 °F -2.4 °F 3.2 °F 73% 30.11 in 10.0 mi West 9.2 mph - N/A   Clear
7:35 AM 8.6 °F -3.7 °F 3.2 °F 79% 30.11 in 10.0 mi West 8.1 mph - N/A   Clear
7:55 AM 8.6 °F -3.7 °F 3.2 °F 79% 30.10 in 10.0 mi WSW 8.1 mph - N/A   Clear
8:15 AM 8.6 °F -5.5 °F 3.2 °F 79% 30.10 in 10.0 mi WSW 10.4 mph - N/A   Clear
8:35 AM 8.6 °F -5.5 °F 3.2 °F 79% 30.10 in 10.0 mi WSW 10.4 mph - N/A   Clear
8:55 AM 10.4 °F -1.5 °F 3.2 °F 73% 30.10 in 10.0 mi WSW 8.1 mph - N/A   Clear
9:15 AM 10.4 °F -3.3 °F 3.2 °F 73% 30.10 in 10.0 mi WSW 10.4 mph - N/A   Clear
9:35 AM 12.2 °F -1.8 °F -0.4 °F 57% 30.09 in 10.0 mi WSW 11.5 mph - N/A   Mostly Cloudy
9:55 AM 12.2 °F -1.8 °F -0.4 °F 57% 30.09 in 10.0 mi SW 11.5 mph 18.4 mph N/A   Mostly Cloudy
10:15 AM 14.0 °F -1.4 °F -2.2 °F 49% 30.08 in 10.0 mi SW 15.0 mph - N/A   Mostly Cloudy
10:35 AM 15.8 °F 0.3 °F -0.4 °F 49% 30.07 in 10.0 mi WSW 16.1 mph - N/A   Scattered Clouds
10:55 AM 15.8 °F 1.4 °F -0.4 °F 49% 30.06 in 10.0 mi SW 13.8 mph - N/A   Partly Cloudy
11:15 AM 17.6 °F 2.2 °F -0.4 °F 45% 30.05 in 10.0 mi SW 17.3 mph - N/A   Clear
11:35 AM 15.8 °F - -0.4 °F 49% 30.04 in 10.0 mi North - - N/A   Partly Cloudy
11:55 AM 19.4 °F 4.1 °F 3.2 °F 49% 30.03 in 10.0 mi SW 18.4 mph 24.2 mph N/A   Mostly Cloudy
12:15 PM 19.4 °F 4.5 °F 3.2 °F 49% 30.01 in 10.0 mi SW 17.3 mph 24.2 mph N/A   Mostly Cloudy
12:35 PM 21.2 °F 5.6 °F 3.2 °F 46% 30.00 in 10.0 mi SW 20.7 mph 27.6 mph N/A   Mostly Cloudy
12:55 PM 21.2 °F 4.5 °F 5.0 °F 50% 29.99 in 10.0 mi SW 24.2 mph 32.2 mph N/A   Overcast
1:15 PM 23.0 °F 7.2 °F 5.0 °F 46% 29.99 in 10.0 mi WSW 23.0 mph 29.9 mph N/A   Mostly Cloudy
1:35 PM 23.0 °F 5.7 °F 5.0 °F 46% 29.98 in 10.0 mi WSW 28.8 mph 38.0 mph N/A   Partly Cloudy
1:55 PM 23.0 °F 7.6 °F 6.8 °F 50% 29.97 in 10.0 mi WSW 21.9 mph 32.2 mph N/A   Mostly Cloudy
2:15 PM 23.0 °F 7.6 °F 8.6 °F 54% 29.99 in 10.0 mi West 21.9 mph 32.2 mph N/A   Overcast
2:35 PM 23.0 °F 7.2 °F 8.6 °F 54% 29.98 in 10.0 mi West 23.0 mph 31.1 mph N/A   Overcast
2:55 PM 24.8 °F 9.0 °F 10.4 °F 54% 29.99 in 10.0 mi West 25.3 mph 31.1 mph N/A   Scattered Clouds
3:15 PM 23.0 °F 7.2 °F 10.4 °F 59% 30.00 in 10.0 mi West 23.0 mph 31.1 mph N/A   Mostly Cloudy
3:35 PM 23.0 °F 6.6 °F 10.4 °F 59% 30.00 in 10.0 mi WSW 25.3 mph 33.4 mph N/A   Mostly Cloudy
3:55 PM 24.8 °F 9.6 °F 10.4 °F 54% 30.02 in 10.0 mi West 23.0 mph 32.2 mph N/A   Mostly Cloudy
4:15 PM 23.0 °F 8.3 °F 10.4 °F 59% 30.03 in 10.0 mi West 19.6 mph 33.4 mph N/A   Mostly Cloudy
4:35 PM 23.0 °F 7.6 °F 10.4 °F 59% 30.05 in 10.0 mi West 21.9 mph - N/A   Mostly Cloudy
4:55 PM 23.0 °F 8.7 °F 10.4 °F 59% 30.07 in 10.0 mi West 18.4 mph 26.5 mph N/A   Mostly Cloudy
5:15 PM 21.2 °F 5.2 °F 10.4 °F 63% 30.07 in 10.0 mi West 21.9 mph 28.8 mph N/A   Mostly Cloudy
5:35 PM 21.2 °F 6.8 °F 10.4 °F 63% 30.08 in 10.0 mi West 17.3 mph - N/A   Mostly Cloudy
5:55 PM 21.2 °F 7.8 °F 10.4 °F 63% 30.09 in 10.0 mi West 15.0 mph - N/A   Mostly Cloudy
6:15 PM 21.2 °F 7.8 °F 10.4 °F 63% 30.10 in 10.0 mi West 15.0 mph - N/A   Overcast
6:35 PM 19.4 °F 7.2 °F 10.4 °F 68% 30.10 in 10.0 mi West 11.5 mph 17.3 mph N/A   Partly Cloudy
6:55 PM 19.4 °F 7.2 °F 10.4 °F 68% 30.12 in 10.0 mi WSW 11.5 mph - N/A   Clear
7:15 PM 19.4 °F 6.6 °F 10.4 °F 68% 30.13 in 10.0 mi West 12.7 mph - N/A   Partly Cloudy
7:35 PM 19.4 °F 4.1 °F 10.4 °F 68% 30.14 in 10.0 mi West 18.4 mph 25.3 mph N/A   Scattered Clouds
7:55 PM 19.4 °F 6.0 °F 10.4 °F 68% 30.14 in 10.0 mi WSW 13.8 mph 21.9 mph N/A   Mostly Cloudy
8:15 PM 19.4 °F 5.0 °F 10.4 °F 68% 30.14 in 10.0 mi WSW 16.1 mph 23.0 mph N/A   Overcast
8:35 PM 19.4 °F 6.0 °F 10.4 °F 68% 30.14 in 10.0 mi WSW 13.8 mph - N/A   Mostly Cloudy
8:55 PM 19.4 °F 6.0 °F 8.6 °F 63% 30.14 in 10.0 mi WSW 13.8 mph - N/A   Partly Cloudy
9:15 PM 19.4 °F 6.0 °F 8.6 °F 63% 30.14 in 10.0 mi WSW 13.8 mph - N/A   Clear
9:35 PM 19.4 °F 6.0 °F 10.4 °F 68% 30.16 in 10.0 mi WSW 13.8 mph - N/A   Clear
9:55 PM 19.4 °F 5.5 °F 8.6 °F 63% 30.18 in 10.0 mi WSW 15.0 mph - N/A   Clear
10:15 PM 17.6 °F 2.7 °F 10.4 °F 73% 30.19 in 10.0 mi WSW 16.1 mph - N/A   Clear
10:35 PM 17.6 °F 3.2 °F 8.6 °F 68% 30.20 in 10.0 mi West 15.0 mph 20.7 mph N/A   Clear
10:55 PM 17.6 °F 3.2 °F 8.6 °F 68% 30.20 in 10.0 mi West 15.0 mph - N/A   Clear
11:15 PM 17.6 °F 4.3 °F 8.6 °F 68% 30.21 in 10.0 mi WSW 12.7 mph - N/A   Partly Cloudy
11:35 PM 17.6 °F 3.2 °F 8.6 °F 68% 30.20 in 10.0 mi WSW 15.0 mph - N/A   Mostly Cloudy
11:55 PM 17.6 °F 4.3 °F 8.6 °F 68% 30.21 in 10.0 mi WSW 12.7 mph - N/A   Mostly Cloudy